{"data":{"norad_id":58191,"epoch":"2026-09-20T08:18:05.398848Z","epoch_age_seconds":156870,"freshness":"FRESH","line1":"1 58191U 23167S   26263.34589582 -.00000031  00000+0  84095-5 0  9991","line2":"2 58191  43.0070 124.2138 0001110 254.5126 105.5603 15.27566022160754","mean_motion":15.27566022,"eccentricity":0.000111,"inclination_deg":43.007,"raan_deg":124.2138,"arg_perigee_deg":254.5126,"mean_anomaly_deg":105.5603,"bstar":8.4095e-6,"rev_number":16075,"period_min":94.267611301975,"perigee_km":482.32935521676,"apogee_km":483.85254782199,"semimajor_km":6861.2279515194,"source":"CELESTRAK","updated_at":"2026-09-21T09:00:33.829150Z"}}